Year,Month,Day,Hour,Minute,Value (Times are PST for temperature in C)
2010,05,05,00,00,4.60
2010,05,05,00,01,4.60
2010,05,05,00,02,4.60
2010,05,05,00,03,4.60
2010,05,05,00,04,4.60
2010,05,05,00,05,4.60
2010,05,05,00,06,4.60
2010,05,05,00,07,4.50
2010,05,05,00,08,4.50
2010,05,05,00,09,4.50
2010,05,05,00,10,4.50
2010,05,05,00,11,4.50
2010,05,05,00,12,4.50
2010,05,05,00,13,4.40
2010,05,05,00,14,4.40
2010,05,05,00,15,4.40
2010,05,05,00,16,4.40
2010,05,05,00,17,4.40
2010,05,05,00,18,4.40
2010,05,05,00,19,4.40
2010,05,05,00,20,4.40
2010,05,05,00,21,4.40
2010,05,05,00,22,4.30
2010,05,05,00,23,4.30
2010,05,05,00,24,4.30
2010,05,05,00,25,4.30
2010,05,05,00,26,4.30
2010,05,05,00,27,4.30
2010,05,05,00,28,4.30
2010,05,05,00,29,4.30
2010,05,05,00,30,4.30
2010,05,05,00,31,4.20
2010,05,05,00,32,4.20
2010,05,05,00,33,4.20
2010,05,05,00,34,4.20
2010,05,05,00,35,4.20
2010,05,05,00,36,4.20
2010,05,05,00,37,4.20
2010,05,05,00,38,4.20
2010,05,05,00,39,4.20
2010,05,05,00,40,4.20
2010,05,05,00,41,4.20
2010,05,05,00,42,4.10
2010,05,05,00,43,4.10
2010,05,05,00,44,4.10
2010,05,05,00,45,4.10
2010,05,05,00,46,4.10
2010,05,05,00,47,4.10
2010,05,05,00,48,4.10
2010,05,05,00,49,4.00
2010,05,05,00,50,4.00
2010,05,05,00,51,4.00
2010,05,05,00,52,3.90
2010,05,05,00,53,3.90
2010,05,05,00,54,3.90
2010,05,05,00,55,3.90
2010,05,05,00,56,3.90
2010,05,05,00,57,3.90
2010,05,05,00,58,3.90
2010,05,05,00,59,3.90
2010,05,05,01,00,3.90
2010,05,05,01,01,3.90
2010,05,05,01,02,3.90
2010,05,05,01,03,3.90
2010,05,05,01,04,3.80
2010,05,05,01,05,3.80
2010,05,05,01,06,3.80
2010,05,05,01,07,3.80
2010,05,05,01,08,3.80
2010,05,05,01,09,3.80
2010,05,05,01,10,3.80
2010,05,05,01,11,3.80
2010,05,05,01,12,3.80
2010,05,05,01,13,3.80
2010,05,05,01,14,3.80
2010,05,05,01,15,3.80
2010,05,05,01,16,3.80
2010,05,05,01,17,3.80
2010,05,05,01,18,3.80
2010,05,05,01,19,3.80
2010,05,05,01,20,3.80
2010,05,05,01,21,3.80
2010,05,05,01,22,3.70
2010,05,05,01,23,3.70
2010,05,05,01,24,3.70
2010,05,05,01,25,3.70
2010,05,05,01,26,3.70
2010,05,05,01,27,3.70
2010,05,05,01,28,3.70
2010,05,05,01,29,3.70
2010,05,05,01,30,3.70
2010,05,05,01,31,3.70
2010,05,05,01,32,3.70
2010,05,05,01,33,3.70
2010,05,05,01,34,3.70
2010,05,05,01,35,3.70
2010,05,05,01,36,3.70
2010,05,05,01,37,3.70
2010,05,05,01,38,3.70
2010,05,05,01,39,3.70
2010,05,05,01,40,3.70
2010,05,05,01,41,3.70
2010,05,05,01,42,3.70
2010,05,05,01,43,3.70
2010,05,05,01,44,3.70
2010,05,05,01,45,3.70
2010,05,05,01,46,3.70
2010,05,05,01,47,3.70
2010,05,05,01,48,3.70
2010,05,05,01,49,3.70
2010,05,05,01,50,3.70
2010,05,05,01,51,3.70
2010,05,05,01,52,3.70
2010,05,05,01,53,3.60
2010,05,05,01,54,3.60
2010,05,05,01,55,3.60
2010,05,05,01,56,3.60
2010,05,05,01,57,3.60
2010,05,05,01,58,3.60
2010,05,05,01,59,3.60
2010,05,05,02,00,3.60
2010,05,05,02,01,3.60
2010,05,05,02,02,3.60
2010,05,05,02,03,3.60
2010,05,05,02,04,3.60
2010,05,05,02,05,3.60
2010,05,05,02,06,3.70
2010,05,05,02,07,3.70
2010,05,05,02,08,3.70
2010,05,05,02,09,3.70
2010,05,05,02,10,3.70
2010,05,05,02,11,3.70
2010,05,05,02,12,3.70
2010,05,05,02,13,3.70
2010,05,05,02,14,3.70
2010,05,05,02,15,3.70
2010,05,05,02,16,3.70
2010,05,05,02,17,3.70
2010,05,05,02,18,3.70
2010,05,05,02,19,3.70
2010,05,05,02,20,3.80
2010,05,05,02,21,3.80
2010,05,05,02,22,3.80
2010,05,05,02,23,3.80
2010,05,05,02,24,3.80
2010,05,05,02,25,3.80
2010,05,05,02,26,3.80
2010,05,05,02,27,3.80
2010,05,05,02,28,3.80
2010,05,05,02,29,3.80
2010,05,05,02,30,3.80
2010,05,05,02,31,3.80
2010,05,05,02,32,3.80
2010,05,05,02,33,3.80
2010,05,05,02,34,3.80
2010,05,05,02,35,3.80
2010,05,05,02,36,3.80
2010,05,05,02,37,3.80
2010,05,05,02,38,3.80
2010,05,05,02,39,3.80
2010,05,05,02,40,3.80
2010,05,05,02,41,3.80
2010,05,05,02,42,3.80
2010,05,05,02,43,3.80
2010,05,05,02,44,3.80
2010,05,05,02,45,3.80
2010,05,05,02,46,3.80
2010,05,05,02,47,3.80
2010,05,05,02,48,3.80
2010,05,05,02,49,3.80
2010,05,05,02,50,3.80
2010,05,05,02,51,3.80
2010,05,05,02,52,3.80
2010,05,05,02,53,3.80
2010,05,05,02,54,3.80
2010,05,05,02,55,3.80
2010,05,05,02,56,3.80
2010,05,05,02,57,3.80
2010,05,05,02,58,3.80
2010,05,05,02,59,3.80
2010,05,05,03,00,3.80
2010,05,05,03,01,3.80
2010,05,05,03,02,3.70
2010,05,05,03,03,3.70
2010,05,05,03,04,3.70
2010,05,05,03,05,3.70
2010,05,05,03,06,3.70
2010,05,05,03,07,3.70
2010,05,05,03,08,3.70
2010,05,05,03,09,3.70
2010,05,05,03,10,3.70
2010,05,05,03,11,3.70
2010,05,05,03,12,3.70
2010,05,05,03,13,3.70
2010,05,05,03,14,3.70
2010,05,05,03,15,3.70
2010,05,05,03,16,3.70
2010,05,05,03,17,3.70
2010,05,05,03,18,3.60
2010,05,05,03,19,3.60
2010,05,05,03,20,3.60
2010,05,05,03,21,3.60
2010,05,05,03,22,3.60
2010,05,05,03,23,3.60
2010,05,05,03,24,3.60
2010,05,05,03,25,3.60
2010,05,05,03,26,3.60
2010,05,05,03,27,3.60
2010,05,05,03,28,3.60
2010,05,05,03,29,3.60
2010,05,05,03,30,3.60
2010,05,05,03,31,3.60
2010,05,05,03,32,3.60
2010,05,05,03,33,3.60
2010,05,05,03,34,3.60
2010,05,05,03,35,3.60
2010,05,05,03,36,3.60
2010,05,05,03,37,3.60
2010,05,05,03,38,3.60
2010,05,05,03,39,3.60
2010,05,05,03,40,3.60
2010,05,05,03,41,3.60
2010,05,05,03,42,3.60
2010,05,05,03,43,3.60
2010,05,05,03,44,3.60
2010,05,05,03,45,3.50
2010,05,05,03,46,3.60
2010,05,05,03,47,3.50
2010,05,05,03,48,3.50
2010,05,05,03,49,3.50
2010,05,05,03,50,3.50
2010,05,05,03,51,3.50
2010,05,05,03,52,3.50
2010,05,05,03,53,3.50
2010,05,05,03,54,3.50
2010,05,05,03,55,3.50
2010,05,05,03,56,3.50
2010,05,05,03,57,3.50
2010,05,05,03,58,3.50
2010,05,05,03,59,3.50
2010,05,05,04,00,3.40
2010,05,05,04,01,3.40
2010,05,05,04,02,3.40
2010,05,05,04,03,3.40
2010,05,05,04,04,3.40
2010,05,05,04,05,3.40
2010,05,05,04,06,3.40
2010,05,05,04,07,3.40
2010,05,05,04,08,3.30
2010,05,05,04,09,3.30
2010,05,05,04,10,3.30
2010,05,05,04,11,3.30
2010,05,05,04,12,3.30
2010,05,05,04,13,3.30
2010,05,05,04,14,3.30
2010,05,05,04,15,3.30
2010,05,05,04,16,3.30
2010,05,05,04,17,3.30
2010,05,05,04,18,3.30
2010,05,05,04,19,3.30
2010,05,05,04,20,3.30
2010,05,05,04,21,3.30
2010,05,05,04,22,3.30
2010,05,05,04,23,3.30
2010,05,05,04,24,3.30
2010,05,05,04,25,3.20
2010,05,05,04,26,3.20
2010,05,05,04,27,3.20
2010,05,05,04,28,3.20
2010,05,05,04,29,3.20
2010,05,05,04,30,3.20
2010,05,05,04,31,3.20
2010,05,05,04,32,3.20
2010,05,05,04,33,3.20
2010,05,05,04,34,3.20
2010,05,05,04,35,3.20
2010,05,05,04,36,3.20
2010,05,05,04,37,3.20
2010,05,05,04,38,3.20
2010,05,05,04,39,3.20
2010,05,05,04,40,3.20
2010,05,05,04,41,3.20
2010,05,05,04,42,3.20
2010,05,05,04,43,3.20
2010,05,05,04,44,3.10
2010,05,05,04,45,3.10
2010,05,05,04,46,3.10
2010,05,05,04,47,3.10
2010,05,05,04,48,3.10
2010,05,05,04,49,3.10
2010,05,05,04,50,3.10
2010,05,05,04,51,3.10
2010,05,05,04,52,3.10
2010,05,05,04,53,3.10
2010,05,05,04,54,3.10
2010,05,05,04,55,3.00
2010,05,05,04,56,3.00
2010,05,05,04,57,3.00
2010,05,05,04,58,3.00
2010,05,05,04,59,3.00
2010,05,05,05,00,3.00
2010,05,05,05,01,2.90
2010,05,05,05,02,2.90
2010,05,05,05,03,2.90
2010,05,05,05,04,2.90
2010,05,05,05,05,2.90
2010,05,05,05,06,2.90
2010,05,05,05,07,2.80
2010,05,05,05,08,2.80
2010,05,05,05,09,2.80
2010,05,05,05,10,2.80
2010,05,05,05,11,2.80
2010,05,05,05,12,2.80
2010,05,05,05,13,2.80
2010,05,05,05,14,2.80
2010,05,05,05,15,2.80
2010,05,05,05,16,2.80
2010,05,05,05,17,2.80
2010,05,05,05,18,2.70
2010,05,05,05,19,2.70
2010,05,05,05,20,2.70
2010,05,05,05,21,2.70
2010,05,05,05,22,2.70
2010,05,05,05,23,2.70
2010,05,05,05,24,2.70
2010,05,05,05,25,2.70
2010,05,05,05,26,2.70
2010,05,05,05,27,2.70
2010,05,05,05,28,2.70
2010,05,05,05,29,2.70
2010,05,05,05,30,2.70
2010,05,05,05,31,2.70
2010,05,05,05,32,2.70
2010,05,05,05,33,2.60
2010,05,05,05,34,2.60
2010,05,05,05,35,2.60
2010,05,05,05,36,2.60
2010,05,05,05,37,2.60
2010,05,05,05,38,2.60
2010,05,05,05,39,2.60
2010,05,05,05,40,2.60
2010,05,05,05,41,2.60
2010,05,05,05,42,2.60
2010,05,05,05,43,2.60
2010,05,05,05,44,2.60
2010,05,05,05,45,2.60
2010,05,05,05,46,2.60
2010,05,05,05,47,2.60
2010,05,05,05,48,2.50
2010,05,05,05,49,2.50
2010,05,05,05,50,2.50
2010,05,05,05,51,2.50
2010,05,05,05,52,2.50
2010,05,05,05,53,2.50
2010,05,05,05,54,2.50
2010,05,05,05,55,2.50
2010,05,05,05,56,2.50
2010,05,05,05,57,2.50
2010,05,05,05,58,2.40
2010,05,05,05,59,2.50
2010,05,05,06,00,2.40
2010,05,05,06,01,2.50
2010,05,05,06,02,2.50
2010,05,05,06,03,2.50
2010,05,05,06,04,2.50
2010,05,05,06,05,2.50
2010,05,05,06,06,2.50
2010,05,05,06,07,2.50
2010,05,05,06,08,2.50
2010,05,05,06,09,2.50
2010,05,05,06,10,2.50
2010,05,05,06,11,2.50
2010,05,05,06,12,2.50
2010,05,05,06,13,2.60
2010,05,05,06,14,2.60
2010,05,05,06,15,2.60
2010,05,05,06,16,2.60
2010,05,05,06,17,2.60
2010,05,05,06,18,2.50
2010,05,05,06,19,2.60
2010,05,05,06,20,2.60
2010,05,05,06,21,2.50
2010,05,05,06,22,2.50
2010,05,05,06,23,2.60
2010,05,05,06,24,2.50
2010,05,05,06,25,2.50
2010,05,05,06,26,2.50
2010,05,05,06,27,2.50
2010,05,05,06,28,2.50
2010,05,05,06,29,2.50
2010,05,05,06,30,2.50
2010,05,05,06,31,2.50
2010,05,05,06,32,2.50
2010,05,05,06,33,2.50
2010,05,05,06,34,2.50
2010,05,05,06,35,2.50
2010,05,05,06,36,2.50
2010,05,05,06,37,2.50
2010,05,05,06,38,2.50
2010,05,05,06,39,2.50
2010,05,05,06,40,2.50
2010,05,05,06,41,2.50
2010,05,05,06,42,2.40
2010,05,05,06,43,2.40
2010,05,05,06,44,2.40
2010,05,05,06,45,2.40
2010,05,05,06,46,2.40
2010,05,05,06,47,2.40
2010,05,05,06,48,2.40
2010,05,05,06,49,2.40
2010,05,05,06,50,2.40
2010,05,05,06,51,2.40
2010,05,05,06,52,2.40
2010,05,05,06,53,2.40
2010,05,05,06,54,2.40
2010,05,05,06,55,2.40
2010,05,05,06,56,2.40
2010,05,05,06,57,2.40
2010,05,05,06,58,2.40
2010,05,05,06,59,2.30
2010,05,05,07,00,2.30
2010,05,05,07,01,2.30
2010,05,05,07,02,2.30
2010,05,05,07,03,2.30
2010,05,05,07,04,2.40
2010,05,05,07,05,2.40
2010,05,05,07,06,2.40
2010,05,05,07,07,2.40
2010,05,05,07,08,2.40
2010,05,05,07,09,2.40
2010,05,05,07,10,2.40
2010,05,05,07,11,2.40
2010,05,05,07,12,2.40
2010,05,05,07,13,2.40
2010,05,05,07,14,2.40
2010,05,05,07,15,2.40
2010,05,05,07,16,2.40
2010,05,05,07,17,2.40
2010,05,05,07,18,2.50
2010,05,05,07,19,2.50
2010,05,05,07,20,2.40
2010,05,05,07,21,2.50
2010,05,05,07,22,2.50
2010,05,05,07,23,2.50
2010,05,05,07,24,2.50
2010,05,05,07,25,2.50
2010,05,05,07,26,2.60
2010,05,05,07,27,2.60
2010,05,05,07,28,2.60
2010,05,05,07,29,2.60
2010,05,05,07,30,2.60
2010,05,05,07,31,2.60
2010,05,05,07,32,2.70
2010,05,05,07,33,2.70
2010,05,05,07,34,2.70
2010,05,05,07,35,2.70
2010,05,05,07,36,2.70
2010,05,05,07,37,2.70
2010,05,05,07,38,2.80
2010,05,05,07,39,2.80
2010,05,05,07,40,2.80
2010,05,05,07,41,2.80
2010,05,05,07,42,2.90
2010,05,05,07,43,2.90
2010,05,05,07,44,3.00
2010,05,05,07,45,3.00
2010,05,05,07,46,3.10
2010,05,05,07,47,3.10
2010,05,05,07,48,3.20
2010,05,05,07,49,3.20
2010,05,05,07,50,3.20
2010,05,05,07,51,3.20
2010,05,05,07,52,3.30
2010,05,05,07,53,3.30
2010,05,05,07,54,3.30
2010,05,05,07,55,3.40
2010,05,05,07,56,3.40
2010,05,05,07,57,3.50
2010,05,05,07,58,3.60
2010,05,05,07,59,3.60
2010,05,05,08,00,3.70
2010,05,05,08,01,3.70
2010,05,05,08,02,3.70
2010,05,05,08,03,3.80
2010,05,05,08,04,3.80
2010,05,05,08,05,3.80
2010,05,05,08,06,3.90
2010,05,05,08,07,3.90
2010,05,05,08,08,4.00
2010,05,05,08,09,4.00
2010,05,05,08,10,4.00
2010,05,05,08,11,4.10
2010,05,05,08,12,4.10
2010,05,05,08,13,4.10
2010,05,05,08,14,4.10
2010,05,05,08,15,4.20
2010,05,05,08,16,4.20
2010,05,05,08,17,4.20
2010,05,05,08,18,4.20
2010,05,05,08,19,4.30
2010,05,05,08,20,4.30
2010,05,05,08,21,4.40
2010,05,05,08,22,4.40
2010,05,05,08,23,4.50
2010,05,05,08,24,4.50
2010,05,05,08,25,4.60
2010,05,05,08,26,4.60
2010,05,05,08,27,4.70
2010,05,05,08,28,4.70
2010,05,05,08,29,4.70
2010,05,05,08,30,4.70
2010,05,05,08,31,4.70
2010,05,05,08,32,4.80
2010,05,05,08,33,4.80
2010,05,05,08,34,4.80
2010,05,05,08,35,4.80
2010,05,05,08,36,4.80
2010,05,05,08,37,4.90
2010,05,05,08,38,4.90
2010,05,05,08,39,4.90
2010,05,05,08,40,4.90
2010,05,05,08,41,4.90
2010,05,05,08,42,5.00
2010,05,05,08,43,5.00
2010,05,05,08,44,5.00
2010,05,05,08,45,5.00
2010,05,05,08,46,5.10
2010,05,05,08,47,5.10
2010,05,05,08,48,5.10
2010,05,05,08,49,5.10
2010,05,05,08,50,5.10
2010,05,05,08,51,5.10
2010,05,05,08,52,5.10
2010,05,05,08,53,5.10
2010,05,05,08,54,5.20
2010,05,05,08,55,5.20
2010,05,05,08,56,5.20
2010,05,05,08,57,5.30
2010,05,05,08,58,5.30
2010,05,05,08,59,5.30
2010,05,05,09,00,5.40
2010,05,05,09,01,5.40
2010,05,05,09,02,5.40
2010,05,05,09,03,5.50
2010,05,05,09,04,5.50
2010,05,05,09,05,5.60
2010,05,05,09,06,5.60
2010,05,05,09,07,5.60
2010,05,05,09,08,5.70
2010,05,05,09,09,5.70
2010,05,05,09,10,5.80
2010,05,05,09,11,5.80
2010,05,05,09,12,5.90
2010,05,05,09,13,6.00
2010,05,05,09,14,6.00
2010,05,05,09,15,6.10
2010,05,05,09,16,6.20
2010,05,05,09,17,6.30
2010,05,05,09,18,6.40
2010,05,05,09,19,6.50
2010,05,05,09,20,6.60
2010,05,05,09,21,6.70
2010,05,05,09,22,6.70
2010,05,05,09,23,6.80
2010,05,05,09,24,6.80
2010,05,05,09,25,6.90
2010,05,05,09,26,6.90
2010,05,05,09,27,6.90
2010,05,05,09,28,7.00
2010,05,05,09,29,7.00
2010,05,05,09,30,7.10
2010,05,05,09,31,7.10
2010,05,05,09,32,7.10
2010,05,05,09,33,7.20
2010,05,05,09,34,7.30
2010,05,05,09,35,7.30
2010,05,05,09,36,7.30
2010,05,05,09,37,7.40
2010,05,05,09,38,7.40
2010,05,05,09,39,7.40
2010,05,05,09,40,7.50
2010,05,05,09,41,7.50
2010,05,05,09,42,7.60
2010,05,05,09,43,7.60
2010,05,05,09,44,7.70
2010,05,05,09,45,7.70
2010,05,05,09,46,7.70
2010,05,05,09,47,7.70
2010,05,05,09,48,7.80
2010,05,05,09,49,7.80
2010,05,05,09,50,7.80
2010,05,05,09,51,7.80
2010,05,05,09,52,7.80
2010,05,05,09,53,7.80
2010,05,05,09,54,7.80
2010,05,05,09,55,7.80
2010,05,05,09,56,7.80
2010,05,05,09,57,7.80
2010,05,05,09,58,7.80
2010,05,05,09,59,7.80
2010,05,05,10,00,7.80
2010,05,05,10,01,7.90
2010,05,05,10,02,7.90
2010,05,05,10,03,7.90
2010,05,05,10,04,7.90
2010,05,05,10,05,7.90
2010,05,05,10,06,7.90
2010,05,05,10,07,7.90
2010,05,05,10,08,8.00
2010,05,05,10,09,8.00
2010,05,05,10,10,8.10
2010,05,05,10,11,8.10
2010,05,05,10,12,8.10
2010,05,05,10,13,8.20
2010,05,05,10,14,8.20
2010,05,05,10,15,8.20
2010,05,05,10,16,8.20
2010,05,05,10,17,8.20
2010,05,05,10,18,8.20
2010,05,05,10,19,8.20
2010,05,05,10,20,8.30
2010,05,05,10,21,8.30
2010,05,05,10,22,8.30
2010,05,05,10,23,8.30
2010,05,05,10,24,8.40
2010,05,05,10,25,8.40
2010,05,05,10,26,8.40
2010,05,05,10,27,8.30
2010,05,05,10,28,8.30
2010,05,05,10,29,8.30
2010,05,05,10,30,8.30
2010,05,05,10,31,8.30
2010,05,05,10,32,8.30
2010,05,05,10,33,8.30
2010,05,05,10,34,8.30
2010,05,05,10,35,8.30
2010,05,05,10,36,8.40
2010,05,05,10,37,8.40
2010,05,05,10,38,8.40
2010,05,05,10,39,8.40
2010,05,05,10,40,8.40
2010,05,05,10,41,8.40
2010,05,05,10,42,8.40
2010,05,05,10,43,8.40
2010,05,05,10,44,8.40
2010,05,05,10,45,8.40
2010,05,05,10,46,8.40
2010,05,05,10,47,8.40
2010,05,05,10,48,8.40
2010,05,05,10,49,8.40
2010,05,05,10,50,8.40
2010,05,05,10,51,8.40
2010,05,05,10,52,8.40
2010,05,05,10,53,8.40
2010,05,05,10,54,8.40
2010,05,05,10,55,8.40
2010,05,05,10,56,8.40
2010,05,05,10,57,8.40
2010,05,05,10,58,8.50
2010,05,05,10,59,8.50
2010,05,05,11,00,8.60
2010,05,05,11,01,8.60
2010,05,05,11,02,8.60
2010,05,05,11,03,8.70
2010,05,05,11,04,8.70
2010,05,05,11,05,8.80
2010,05,05,11,06,8.80
2010,05,05,11,07,8.80
2010,05,05,11,08,8.80
2010,05,05,11,09,8.80
2010,05,05,11,10,8.80
2010,05,05,11,11,8.90
2010,05,05,11,12,8.90
2010,05,05,11,13,8.90
2010,05,05,11,14,8.90
2010,05,05,11,15,8.90
2010,05,05,11,16,8.90
2010,05,05,11,17,8.90
2010,05,05,11,18,8.90
2010,05,05,11,19,9.00
2010,05,05,11,20,9.00
2010,05,05,11,21,9.00
2010,05,05,11,22,9.00
2010,05,05,11,23,9.10
2010,05,05,11,24,9.10
2010,05,05,11,25,9.10
2010,05,05,11,26,9.10
2010,05,05,11,27,9.10
2010,05,05,11,28,9.10
2010,05,05,11,29,9.00
2010,05,05,11,30,9.00
2010,05,05,11,31,8.90
2010,05,05,11,32,8.90
2010,05,05,11,33,8.90
2010,05,05,11,34,8.90
2010,05,05,11,35,8.90
2010,05,05,11,36,8.90
2010,05,05,11,37,8.90
2010,05,05,11,38,8.90
2010,05,05,11,39,8.80
2010,05,05,11,40,8.80
2010,05,05,11,41,8.80
2010,05,05,11,42,8.80
2010,05,05,11,43,8.80
2010,05,05,11,44,8.80
2010,05,05,11,45,8.80
2010,05,05,11,46,8.80
2010,05,05,11,47,8.80
2010,05,05,11,48,8.90
2010,05,05,11,49,8.90
2010,05,05,11,50,8.90
2010,05,05,11,51,8.90
2010,05,05,11,52,9.00
2010,05,05,11,53,9.00
2010,05,05,11,54,9.00
2010,05,05,11,55,9.00
2010,05,05,11,56,9.00
2010,05,05,11,57,9.00
2010,05,05,11,58,9.00
2010,05,05,11,59,9.00
2010,05,05,12,00,9.00
2010,05,05,12,01,9.00
2010,05,05,12,02,8.90
2010,05,05,12,03,8.90
2010,05,05,12,04,9.00
2010,05,05,12,05,9.00
2010,05,05,12,06,9.10
2010,05,05,12,07,9.10
2010,05,05,12,08,9.20
2010,05,05,12,09,9.30
2010,05,05,12,10,9.30
2010,05,05,12,11,9.30
2010,05,05,12,12,9.30
2010,05,05,12,13,9.30
2010,05,05,12,14,9.40
2010,05,05,12,15,9.40
2010,05,05,12,16,9.50
2010,05,05,12,17,9.60
2010,05,05,12,18,9.70
2010,05,05,12,19,9.80
2010,05,05,12,20,9.90
2010,05,05,12,21,10.00
2010,05,05,12,22,10.00
2010,05,05,12,23,10.10
2010,05,05,12,24,10.10
2010,05,05,12,25,10.10
2010,05,05,12,26,10.10
2010,05,05,12,27,10.10
2010,05,05,12,28,10.10
2010,05,05,12,29,10.10
2010,05,05,12,30,10.10
2010,05,05,12,31,10.20
2010,05,05,12,32,10.20
2010,05,05,12,33,10.20
2010,05,05,12,34,10.30
2010,05,05,12,35,10.30
2010,05,05,12,36,10.30
2010,05,05,12,37,10.30
2010,05,05,12,38,10.30
2010,05,05,12,39,10.30
2010,05,05,12,40,10.20
2010,05,05,12,41,10.20
2010,05,05,12,42,10.10
2010,05,05,12,43,10.10
2010,05,05,12,44,10.00
2010,05,05,12,45,10.00
2010,05,05,12,46,9.90
2010,05,05,12,47,9.90
2010,05,05,12,48,9.90
2010,05,05,12,49,10.00
2010,05,05,12,50,10.00
2010,05,05,12,51,10.00
2010,05,05,12,52,10.00
2010,05,05,12,53,9.90
2010,05,05,12,54,9.90
2010,05,05,12,55,9.80
2010,05,05,12,56,9.80
2010,05,05,12,57,9.80
2010,05,05,12,58,9.80
2010,05,05,12,59,9.80
2010,05,05,13,00,9.80
2010,05,05,13,01,9.80
2010,05,05,13,02,9.80
2010,05,05,13,03,9.80
2010,05,05,13,04,9.80
2010,05,05,13,05,9.90
2010,05,05,13,06,9.90
2010,05,05,13,07,9.90
2010,05,05,13,08,10.00
2010,05,05,13,09,10.00
2010,05,05,13,10,10.00
2010,05,05,13,11,10.00
2010,05,05,13,12,10.10
2010,05,05,13,13,10.10
2010,05,05,13,14,10.00
2010,05,05,13,15,10.00
2010,05,05,13,16,10.00
2010,05,05,13,17,10.00
2010,05,05,13,18,10.00
2010,05,05,13,19,10.00
2010,05,05,13,20,10.10
2010,05,05,13,21,10.10
2010,05,05,13,22,10.20
2010,05,05,13,23,10.30
2010,05,05,13,24,10.30
2010,05,05,13,25,10.40
2010,05,05,13,26,10.50
2010,05,05,13,27,10.50
2010,05,05,13,28,10.60
2010,05,05,13,29,10.60
2010,05,05,13,30,10.70
2010,05,05,13,31,10.80
2010,05,05,13,32,10.90
2010,05,05,13,33,10.90
2010,05,05,13,34,11.00
2010,05,05,13,35,11.00
2010,05,05,13,36,11.00
2010,05,05,13,37,11.00
2010,05,05,13,38,11.00
2010,05,05,13,39,11.00
2010,05,05,13,40,11.10
2010,05,05,13,41,11.10
2010,05,05,13,42,11.20
2010,05,05,13,43,11.20
2010,05,05,13,44,11.30
2010,05,05,13,45,11.30
2010,05,05,13,46,11.40
2010,05,05,13,47,11.50
2010,05,05,13,48,11.60
2010,05,05,13,49,11.60
2010,05,05,13,50,11.60
2010,05,05,13,51,11.60
2010,05,05,13,52,11.60
2010,05,05,13,53,11.60
2010,05,05,13,54,11.60
2010,05,05,13,55,11.60
2010,05,05,13,56,11.60
2010,05,05,13,57,11.60
2010,05,05,13,58,11.60
2010,05,05,13,59,11.60
2010,05,05,14,00,11.60
2010,05,05,14,01,11.50
2010,05,05,14,02,11.50
2010,05,05,14,03,11.50
2010,05,05,14,04,11.50
2010,05,05,14,05,11.60
2010,05,05,14,06,11.60
2010,05,05,14,07,11.60
2010,05,05,14,08,11.60
2010,05,05,14,09,11.60
2010,05,05,14,10,11.60
2010,05,05,14,11,11.60
2010,05,05,14,12,11.60
2010,05,05,14,13,11.60
2010,05,05,14,14,11.60
2010,05,05,14,15,11.60
2010,05,05,14,16,11.70
2010,05,05,14,17,11.70
2010,05,05,14,18,11.70
2010,05,05,14,19,11.70
2010,05,05,14,20,11.70
2010,05,05,14,21,11.80
2010,05,05,14,22,11.80
2010,05,05,14,23,11.90
2010,05,05,14,24,11.90
2010,05,05,14,25,12.00
2010,05,05,14,26,12.00
2010,05,05,14,27,12.00
2010,05,05,14,28,12.00
2010,05,05,14,29,12.00
2010,05,05,14,30,12.00
2010,05,05,14,31,12.00
2010,05,05,14,32,12.00
2010,05,05,14,33,12.00
2010,05,05,14,34,12.10
2010,05,05,14,35,12.10
2010,05,05,14,36,12.10
2010,05,05,14,37,12.20
2010,05,05,14,38,12.20
2010,05,05,14,39,12.30
2010,05,05,14,40,12.30
2010,05,05,14,41,12.40
2010,05,05,14,42,12.40
2010,05,05,14,43,12.50
2010,05,05,14,44,12.50
2010,05,05,14,45,12.60
2010,05,05,14,46,12.70
2010,05,05,14,47,12.70
2010,05,05,14,48,12.70
2010,05,05,14,49,12.70
2010,05,05,14,50,12.70
2010,05,05,14,51,12.70
2010,05,05,14,52,12.80
2010,05,05,14,53,12.80
2010,05,05,14,54,12.70
2010,05,05,14,55,12.70
2010,05,05,14,56,12.60
2010,05,05,14,57,12.50
2010,05,05,14,58,12.40
2010,05,05,14,59,12.30
2010,05,05,15,00,12.30
2010,05,05,15,01,12.30
2010,05,05,15,02,12.30
2010,05,05,15,03,12.30
2010,05,05,15,04,12.30
2010,05,05,15,05,12.30
2010,05,05,15,06,12.30
2010,05,05,15,07,12.30
2010,05,05,15,08,12.40
2010,05,05,15,09,12.40
2010,05,05,15,10,12.50
2010,05,05,15,11,12.50
2010,05,05,15,12,12.50
2010,05,05,15,13,12.50
2010,05,05,15,14,12.50
2010,05,05,15,15,12.50
2010,05,05,15,16,12.60
2010,05,05,15,17,12.70
2010,05,05,15,18,12.70
2010,05,05,15,19,12.70
2010,05,05,15,20,12.70
2010,05,05,15,21,12.70
2010,05,05,15,22,12.70
2010,05,05,15,23,12.70
2010,05,05,15,24,12.70
2010,05,05,15,25,12.70
2010,05,05,15,26,12.80
2010,05,05,15,27,12.80
2010,05,05,15,28,12.80
2010,05,05,15,29,12.80
2010,05,05,15,30,12.80
2010,05,05,15,31,12.80
2010,05,05,15,32,12.80
2010,05,05,15,33,12.80
2010,05,05,15,34,12.80
2010,05,05,15,35,12.90
2010,05,05,15,36,12.90
2010,05,05,15,37,12.90
2010,05,05,15,38,12.90
2010,05,05,15,39,12.90
2010,05,05,15,40,13.00
2010,05,05,15,41,13.00
2010,05,05,15,42,13.00
2010,05,05,15,43,12.90
2010,05,05,15,44,12.90
2010,05,05,15,45,12.90
2010,05,05,15,46,12.90
2010,05,05,15,47,12.90
2010,05,05,15,48,12.90
2010,05,05,15,49,12.80
2010,05,05,15,50,12.80
2010,05,05,15,51,12.70
2010,05,05,15,52,12.60
2010,05,05,15,53,12.60
2010,05,05,15,54,12.60
2010,05,05,15,55,12.60
2010,05,05,15,56,12.60
2010,05,05,15,57,12.60
2010,05,05,15,58,12.60
2010,05,05,15,59,12.60
2010,05,05,16,00,12.60
2010,05,05,16,01,12.70
2010,05,05,16,02,12.70
2010,05,05,16,03,12.70
2010,05,05,16,04,12.80
2010,05,05,16,05,12.90
2010,05,05,16,06,13.00
2010,05,05,16,07,13.10
2010,05,05,16,08,13.10
2010,05,05,16,09,13.10
2010,05,05,16,10,13.10
2010,05,05,16,11,13.10
2010,05,05,16,12,13.20
2010,05,05,16,13,13.20
2010,05,05,16,14,13.20
2010,05,05,16,15,13.20
2010,05,05,16,16,13.20
2010,05,05,16,17,13.20
2010,05,05,16,18,13.20
2010,05,05,16,19,13.20
2010,05,05,16,20,13.20
2010,05,05,16,21,13.20
2010,05,05,16,22,13.20
2010,05,05,16,23,13.20
2010,05,05,16,24,13.20
2010,05,05,16,25,13.20
2010,05,05,16,26,13.20
2010,05,05,16,27,13.20
2010,05,05,16,28,13.30
2010,05,05,16,29,13.30
2010,05,05,16,30,13.20
2010,05,05,16,31,13.20
2010,05,05,16,32,13.30
2010,05,05,16,33,13.30
2010,05,05,16,34,13.40
2010,05,05,16,35,13.40
2010,05,05,16,36,13.40
2010,05,05,16,37,13.40
2010,05,05,16,38,13.40
2010,05,05,16,39,13.40
2010,05,05,16,40,13.40
2010,05,05,16,41,13.40
2010,05,05,16,42,13.40
2010,05,05,16,43,13.30
2010,05,05,16,44,13.30
2010,05,05,16,45,13.30
2010,05,05,16,46,13.30
2010,05,05,16,47,13.40
2010,05,05,16,48,13.40
2010,05,05,16,49,13.50
2010,05,05,16,50,13.50
2010,05,05,16,51,13.60
2010,05,05,16,52,13.50
2010,05,05,16,53,13.50
2010,05,05,16,54,13.40
2010,05,05,16,55,13.30
2010,05,05,16,56,13.30
2010,05,05,16,57,13.30
2010,05,05,16,58,13.30
2010,05,05,16,59,13.30
2010,05,05,17,00,13.30
2010,05,05,17,01,13.30
2010,05,05,17,02,13.20
2010,05,05,17,03,13.10
2010,05,05,17,04,13.00
2010,05,05,17,05,13.00
2010,05,05,17,06,12.90
2010,05,05,17,07,12.80
2010,05,05,17,08,12.70
2010,05,05,17,09,12.70
2010,05,05,17,10,12.70
2010,05,05,17,11,12.70
2010,05,05,17,12,12.70
2010,05,05,17,13,12.80
2010,05,05,17,14,12.80
2010,05,05,17,15,12.90
2010,05,05,17,16,13.00
2010,05,05,17,17,13.00
2010,05,05,17,18,13.10
2010,05,05,17,19,13.10
2010,05,05,17,20,13.10
2010,05,05,17,21,13.10
2010,05,05,17,22,13.00
2010,05,05,17,23,12.90
2010,05,05,17,24,12.90
2010,05,05,17,25,12.80
2010,05,05,17,26,12.90
2010,05,05,17,27,12.90
2010,05,05,17,28,12.90
2010,05,05,17,29,12.90
2010,05,05,17,30,12.90
2010,05,05,17,31,12.90
2010,05,05,17,32,12.90
2010,05,05,17,33,12.90
2010,05,05,17,34,12.90
2010,05,05,17,35,12.90
2010,05,05,17,36,12.80
2010,05,05,17,37,12.80
2010,05,05,17,38,12.80
2010,05,05,17,39,12.70
2010,05,05,17,40,12.80
2010,05,05,17,41,12.80
2010,05,05,17,42,12.80
2010,05,05,17,43,12.80
2010,05,05,17,44,12.90
2010,05,05,17,45,12.90
2010,05,05,17,46,13.00
2010,05,05,17,47,13.00
2010,05,05,17,48,13.10
2010,05,05,17,49,13.10
2010,05,05,17,50,13.00
2010,05,05,17,51,13.00
2010,05,05,17,52,12.90